Flag for Germany Weather past 2 weeks in Königs Wusterhausen, Brandenburg, Germany

Now
63 °F

Fog.


Feels Like: 63 °F
Forecast: 54 / 68 °F
Wind: 3 mph from East

Location: Berlin-Schoenefeld

Current Time: Sep 20, 2014 at 12:51:39 PM

Latest Report: Sep 20, 2014 at 12:20 PM


Visibility: 3 mi

Pressure: 29.92 "Hg

Humidity: 94%

Dew point: 61 °F

Location of Königs WusterhausenLocation

Historic Weather in Königs Wusterhausen — Graph

°F

Königs Wusterhausen temperature yesterday

Maximum temperature yesterday: 64 °F (at 1:50 PM)
Minimum temperature yesterday: 54 °F (at 4:50 AM)
Average temperature yesterday: 59 °F

Past Weeks' High & Low Weather Summary

 TemperatureHumidityPressure
High81 °F (Sep 7, 3:20 PM)100% (Sep 7, 8:20 AM)30.15 "Hg (Sep 7, 8:20 AM)
Low50 °F (Sep 11, 2:20 AM)41% (Sep 18, 4:20 PM)29.86 "Hg (Sep 6, 5:20 PM)
Average64 °F78%30.01 "Hg
* Reported Sep 5 11:20 AM — Sep 20 11:50 AM, Königs Wusterhausen, Weather by CustomWeather, © 2014

Note: Actual official high and low records may vary slightly from our data, if they occured in-between our weather recording intervals... More about our weather records

Advertising

Königs Wusterhausen weather history for previous 24 hours

 ConditionsComfort  
Time TempWeatherWind HumidityBarometerVisibility
11:50 AM
Sep 20
61 °FDrizzle. Fog.3 mph100%29.92 "Hg3 mi
11:20 AM61 °FFog.3 mph94%29.92 "Hg3 mi
10:50 AM61 °FFog.2 mph100%29.92 "Hg3 mi
10:20 AM59 °FFog.2 mph100%29.92 "Hg2 mi
9:50 AM59 °FDrizzle. Fog.3 mph100%29.92 "Hg1 mi
9:20 AM57 °FDrizzle. Fog.2 mph100%29.92 "Hg1 mi
8:50 AM57 °FDrizzle. Fog.No wind100%29.92 "Hg1 mi
8:20 AM57 °FDrizzle. Fog.1 mph100%29.92 "Hg1 mi
7:50 AM57 °FFog.1 mph100%29.92 "Hg0 mi
7:20 AM57 °FDrizzle. Fog.1 mph100%29.92 "Hg0 mi
6:50 AM55 °FFog.2 mph100%29.92 "Hg0 mi
6:20 AM55 °FFog.2 mph100%29.92 "Hg0 mi
5:50 AM55 °FFog.2 mph100%29.92 "Hg0 mi
5:20 AM57 °FFog.3 mph100%29.92 "Hg0 mi
4:50 AM57 °FFog.5 mph100%29.92 "Hg0 mi
4:20 AM57 °FFog.3 mph100%29.92 "Hg0 mi
3:50 AM57 °FFog.1 mph100%29.92 "Hg0 mi
3:20 AM57 °FFog.3 mph100%29.92 "Hg1 mi
2:50 AM57 °FFog.6 mph100%29.92 "Hg2 mi
1:50 AM57 °FFog.2 mph94%29.92 "Hg2 mi
1:20 AM57 °FFog.6 mph94%29.92 "Hg1 mi
12:50 AM57 °FFog.5 mph100%29.92 "Hg2 mi
12:20 AM59 °FFog.6 mph94%29.92 "Hg3 mi
11:50 PM
Sep 19
59 °FClear.5 mph94%29.95 "Hg4 mi
11:20 PM59 °FClear.7 mph94%29.92 "Hg10 mi
10:50 PM59 °FClear.7 mph94%29.92 "Hg10 mi
10:20 PM59 °FClear.7 mph94%29.95 "Hg10 mi
9:50 PM61 °FPassing clouds.6 mph94%29.95 "Hg10 mi
9:20 PM61 °FPartly cloudy.6 mph94%29.95 "Hg6 mi
8:50 PM61 °FClear.6 mph94%29.95 "Hg10 mi
8:20 PM61 °FClear.8 mph94%29.95 "Hg10 mi
7:50 PM63 °FSunny.7 mph88%29.95 "Hg10 mi
7:20 PM63 °FSunny.6 mph88%29.92 "Hg10 mi
6:50 PM64 °FSunny.6 mph83%29.92 "Hg10 mi
6:20 PM64 °FSunny.6 mph83%29.92 "Hg10 mi
5:50 PM64 °FSunny.5 mph88%29.92 "Hg10 mi
5:20 PM64 °FLight rain. Partly sunny.6 mph83%29.92 "HgN/A
4:50 PM64 °FSunny.5 mph83%29.95 "Hg10 mi
4:20 PM64 °FSunny.5 mph83%29.95 "Hg10 mi
3:50 PM64 °FPartly sunny.6 mph83%29.95 "HgN/A
3:20 PM64 °FLight rain. Broken clouds.5 mph83%29.95 "HgN/A
2:50 PM64 °FBroken clouds.6 mph78%29.95 "HgN/A
2:20 PM64 °FBroken clouds.6 mph78%29.95 "HgN/A
1:50 PM64 °FBroken clouds.6 mph78%29.95 "HgN/A
1:20 PM63 °FBroken clouds.8 mph88%29.95 "HgN/A
12:50 PM61 °FBroken clouds.6 mph94%29.95 "HgN/A
12:20 PM61 °FPartly sunny.7 mph88%29.95 "HgN/A
Weather by CustomWeather, © 2014

See weather overviewHow to use our weather pages